[[{"header":{"parameterUnit":"m.s-1","parameterCategory":1,"la1":30.2991,"la2":30.254,"lo1":-89.0895,"lo2":-89.0444,"dy":0.0017,"dx":0.0017,"nx":28,"ny":28,"refTime":"2024-12-24T03:00:00:Z","depth":0,"parameterNumber":2,"parameterNumberName":"U-component_of_WINDS"},"data":[0,0,0,0,0,0,0,0,0,0,0,0,0,0,0,0,0,0,0,0,0,0,0,0,0,0,0,0,0,0,0,0,0,0,0,0,0,0,0,0,0,0,0,0,0,0,0,0,0,0,0,0,0,0,0,0,0,0,-5.6867,-5.6867,0,-5.6919,-5.6919,-5.692,-5.6756,-5.6751,-5.6746,-5.6741,-5.6798,-5.6804,-5.681,0,0,0,0,0,0,0,0,0,0,0,0,0,-5.6628,-5.6633,-5.6867,-5.6867,-5.6868,-5.6919,-5.6919,-5.692,-5.6757,-5.6751,-5.6745,-5.6739,-5.6796,-5.6803,-5.681,0,0,0,0,0,0,0,0,0,0,0,0,0,-5.6712,-5.6635,-5.6866,-5.6792,-5.6786,-5.6919,-5.6919,-5.692,-5.6758,-5.6751,-5.6743,-5.6736,-5.6793,-5.6802,-5.6811,-5.7018,0,0,-5.684,-5.6844,0,0,0,0,0,0,0,0,-5.6707,-5.672,-5.6803,-5.6798,-5.6791,-5.6823,-5.6856,-5.6953,-5.676,-5.6769,-5.6741,-5.6732,-5.6812,-5.682,-5.6846,-5.7021,-5.7023,-5.684,-5.6846,-5.685,-5.6853,0,0,0,0,0,0,0,-5.6701,-5.6717,-5.6887,-5.6804,-5.6797,-5.6758,-5.6761,-5.6874,-5.6832,-5.6768,-5.6756,-5.6764,-5.6808,-5.6837,-5.6846,-5.7024,-5.684,-5.6848,-5.6854,-5.6858,-5.7372,-5.738,0,0,0,0,0,0,-5.6705,-5.6714,-5.6885,-5.6889,-5.673,-5.6768,-5.6772,-5.6821,-5.683,-5.6825,-5.677,-5.6756,-5.6825,-5.6835,-5.6847,-5.709,-5.685,-5.6858,-5.6864,-5.7364,-5.7374,-5.7383,0,0,0,0,0,0,-5.67,-5.6722,-5.6883,-5.6798,-5.6815,-5.678,-5.6836,-5.6826,-5.6855,-5.6833,-5.6825,-5.6808,-5.682,-5.6834,-5.6977,-5.709,-5.6863,-5.6871,-5.7355,-5.7367,-5.7379,-5.7578,0,0,0,0,0,0,-5.6694,-5.6721,-5.6799,-5.6801,-5.6821,-5.7012,-5.6843,-5.6832,-5.6871,-5.6853,-5.6866,-5.6861,-5.6815,-5.6964,-5.6986,-5.7099,-5.6878,-5.7344,-5.736,-5.7375,-5.7562,-5.7596,-5.7625,0,0,0,0,0,-5.6686,-5.6853,-5.6803,-5.6825,-5.6917,-5.7019,-5.703,-5.6973,-5.6881,-5.6959,-5.6945,-5.686,-5.7074,-5.698,-5.7004,-5.7121,-5.7337,-5.7356,-5.7374,-5.7547,-5.7589,-5.7625,0,0,0,0,0,0,-5.6866,-5.6852,-5.6797,-5.6969,-5.6996,-5.6991,-5.7087,-5.7019,-5.7074,-5.7055,-5.6983,-5.6987,-5.7143,-5.7146,-5.7041,-5.7322,-5.719,-5.7214,-5.7314,-5.7354,-5.7385,-5.7381,-5.6886,0,0,0,0,0,-5.6926,-5.7009,-5.6992,-5.7146,-5.7163,-5.7124,-5.7166,-5.712,-5.7145,-5.7156,-5.7152,-5.7181,-5.7254,-5.7304,-5.737,-5.7562,-5.7562,-5.7654,-5.7686,-5.7712,-5.7733,-5.7835,-5.7875,-5.7443,-5.7443,-5.7443,0,0,-5.705,-5.7052,-5.7109,-5.7183,-5.7198,-5.7286,-5.7134,-5.7234,-5.7299,-5.7171,-5.7305,-5.7304,-5.7331,-5.7499,-5.7573,-5.7506,-5.7853,-5.7735,-5.7756,-5.7763,-5.7858,-5.7899,-5.7935,-5.7455,-5.7453,-5.7451,0,0,-5.7321,-5.7331,-5.746,-5.7479,-5.7504,-5.7477,-5.7509,-5.7514,-5.7508,-5.7641,-5.7547,-5.7625,-5.7753,-5.7776,-5.7805,-5.8087,-5.8011,-5.8111,-5.8277,-5.8377,-5.8411,-5.8441,-5.8541,-5.8578,-5.8132,-5.8133,-5.8133,0,-5.7472,-5.76,-5.7536,-5.7642,-5.7678,-5.7566,-5.7697,-5.7718,-5.7765,-5.7792,-5.7717,-5.7876,-5.7886,-5.8058,-5.8127,-5.8154,-5.8188,-5.8108,-5.8411,-5.844,-5.8467,-5.8562,-5.86,-5.8144,-5.8143,-5.8142,-5.8141,0,-5.7785,-5.7876,-5.7977,-5.8024,-5.8071,-5.819,-5.8144,-5.82,-5.815,-5.8132,-5.827,-5.8279,-5.8345,-5.8383,-5.8336,-5.8549,-5.8507,-5.8423,-5.8289,-5.8522,-5.861,-5.8646,-5.8161,-5.8157,-5.8154,-5.8151,0,0,-5.8169,-5.8179,-5.8218,-5.8238,-5.8258,-5.8328,-5.8442,-5.8506,-5.8555,-5.8592,-5.8686,-5.8798,-5.872,-5.8753,-5.8708,-5.8796,-5.9019,-5.8701,-5.87,-5.876,-5.9255,-5.9317,-5.936,-5.897,-5.8976,-5.8982,-5.9252,0,-5.8435,-5.8629,-5.8575,-5.877,-5.8853,-5.8749,-5.8848,-5.8873,-5.8859,-5.8928,-5.8913,-5.8993,-5.8885,-5.8904,-5.8987,-5.8975,-5.9117,-5.8954,-5.9057,-5.9061,-5.9052,-5.9406,-5.9472,-5.9727,-5.9286,-5.9292,-5.9296,0,-5.8771,-5.882,-5.9023,-5.903,-5.9063,-5.9153,-5.9208,-5.9276,-5.9302,-5.9286,-5.9324,-5.9261,-5.9374,-5.9241,-5.9396,-5.9287,-5.9326,-5.9326,-5.9335,-5.9341,-5.9192,-5.9422,-5.9807,-5.9845,-5.935,-5.9346,-5.9342,0,-5.9031,-5.9148,-5.9284,-5.9305,-5.9316,-5.9382,-5.9391,-5.9409,-5.9451,-5.95,-5.9527,-5.9589,-5.9623,-5.9673,-5.9629,-5.9536,-5.9792,-5.9654,-5.9782,-5.9784,-5.984,-5.9837,-6.0236,-5.9867,-5.9867,-5.9866,-5.9865,0,-5.9333,-5.9462,-5.9401,-5.9485,-5.9625,-5.9563,-5.9705,-5.9701,-5.9719,-5.9801,-5.9715,-5.9794,-5.9732,-5.9806,-5.9773,-5.9907,-5.9923,-5.9914,-5.9903,-5.9921,-5.9922,-5.9945,-5.9926,-5.9876,-5.9874,-5.9872,-5.987,0,-5.9646,-5.9611,-5.9752,-5.9752,-5.9755,-5.9859,-5.9859,-5.9938,-5.9918,-6.0023,-6.0044,-6.0014,-6.0097,-6.0059,-6.0146,-6.0123,-6.0296,-6.0262,-6.0287,-6.0278,-6.0408,-6.0396,-6.0835,-6.0889,-6.0486,-6.049,-6.0494,0,-5.9841,-5.9937,-5.9948,-5.9996,-6.001,-6.0089,-6.0132,-6.0076,-6.0124,-6.0161,-6.0235,-6.0311,-6.0368,-6.0505,-6.0492,-6.0558,-6.0525,-6.0674,-6.0534,-6.0549,-6.0527,-6.0521,-6.053,-6.0702,-6.0707,-6.0711,-6.0714,0,-6.0191,-6.0169,-6.0233,-6.0293,-6.0346,-6.039,-6.0427,-6.0472,-6.0417,-6.0476,-6.0559,-6.0604,-6.0692,-6.0769,-6.0827,-6.0836,-6.0767,-6.0758,-6.0791,-6.081,-6.082,-6.0815,-6.0363,-6.0748,-6.0745,-6.0742,-6.074,-6.0739,-6.045,-6.053,-6.055,-6.0625,-6.0647,-6.0684,-6.0758,-6.0747,-6.0816,-6.0883,-6.0846,-6.0944,-6.0968,-6.1039,-6.1058,-6.1134,-6.1075,-6.1123,-6.1135,-6.1148,-6.1164,-6.0809,-6.1145,-6.1144,-6.1143,-6.1142,-6.1141,0,-6.0794,-6.0802,-6.0872,-6.0926,-6.0986,-6.0915,-6.0952,-6.1007,-6.1094,-6.1122,-6.118,-6.1277,-6.1351,-6.1344,-6.1412,-6.1474,-6.1444,-6.1494,-6.1488,-6.1491,-6.1214,-6.1178,-6.1517,-6.1517,-6.1517,-6.1517,-6.1517,-6.1517,-6.098,-6.1113,-6.1094,-6.1237,-6.1244,-6.1338,-6.1366,-6.14,-6.1422,-6.1533,-6.1594,-6.1588,-6.1603,-6.1672,-6.1737,-6.1732,-6.1761,-6.1823,-6.1808,-6.1548,-6.1511,-6.1475,-6.1441,-6.183,-6.1831,-6.2079,-6.2081,-6.2083]},{"header":{"parameterUnit":"m.s-1","parameterCategory":1,"la1":30.2991,"la2":30.254,"lo1":-89.0895,"lo2":-89.0444,"dy":0.0017,"dx":0.0017,"nx":28,"ny":28,"refTime":"2024-12-24T03:00:00:Z","depth":0,"parameterNumber":3,"parameterNumberName":"V-component_of_WINDS"},"data":[0,0,0,0,0,0,0,0,0,0,0,0,0,0,0,0,0,0,0,0,0,0,0,0,0,0,0,0,0,0,0,0,0,0,0,0,0,0,0,0,0,0,0,0,0,0,0,0,0,0,0,0,0,0,0,0,0,0,-0.8473,-0.8473,0,-0.8477,-0.8477,-0.8477,-0.846,-0.8459,-0.8459,-0.8458,-0.8463,-0.8463,-0.8464,0,0,0,0,0,0,0,0,0,0,0,0,0,-0.8451,-0.8451,-0.8473,-0.8473,-0.8473,-0.8477,-0.8477,-0.8477,-0.846,-0.8459,-0.8459,-0.8458,-0.8463,-0.8463,-0.8464,0,0,0,0,0,0,0,0,0,0,0,0,0,-0.8458,-0.8451,-0.8473,-0.8465,-0.8464,-0.8477,-0.8477,-0.8477,-0.846,-0.8459,-0.8459,-0.8458,-0.8463,-0.8463,-0.8464,-0.8484,0,0,-0.8467,-0.8467,0,0,0,0,0,0,0,0,-0.8458,-0.8459,-0.8466,-0.8466,-0.8465,-0.8467,-0.847,-0.8479,-0.846,-0.8462,-0.8458,-0.8458,-0.8465,-0.8466,-0.8468,-0.8485,-0.8485,-0.8467,-0.8467,-0.8468,-0.8468,0,0,0,0,0,0,0,-0.8457,-0.8459,-0.8474,-0.8466,-0.8466,-0.8461,-0.8461,-0.8472,-0.8467,-0.8462,-0.846,-0.8461,-0.8464,-0.8467,-0.8468,-0.8485,-0.8467,-0.8468,-0.8468,-0.8469,-0.8516,-0.8517,0,0,0,0,0,0,-0.8458,-0.8458,-0.8474,-0.8475,-0.8459,-0.8462,-0.8462,-0.8467,-0.8467,-0.8467,-0.8462,-0.846,-0.8466,-0.8467,-0.8468,-0.849,-0.8468,-0.8469,-0.8469,-0.8515,-0.8516,-0.8517,0,0,0,0,0,0,-0.8457,-0.8459,-0.8474,-0.8466,-0.8468,-0.8463,-0.8469,-0.8468,-0.847,-0.8467,-0.8466,-0.8465,-0.8465,-0.8467,-0.848,-0.849,-0.8469,-0.847,-0.8514,-0.8516,-0.8517,-0.8536,0,0,0,0,0,0,-0.8457,-0.8459,-0.8467,-0.8466,-0.8468,-0.8486,-0.8469,-0.8468,-0.8472,-0.847,-0.847,-0.847,-0.8465,-0.8479,-0.8481,-0.8491,-0.8471,-0.8513,-0.8515,-0.8516,-0.8535,-0.8538,-0.8541,0,0,0,0,0,-0.8456,-0.8473,-0.8468,-0.847,-0.8478,-0.8487,-0.8488,-0.8482,-0.8473,-0.848,-0.8478,-0.847,-0.8489,-0.848,-0.8482,-0.8493,-0.8513,-0.8514,-0.8516,-0.8533,-0.8537,-0.854,0,0,0,0,0,0,-0.8477,-0.8473,-0.8467,-0.8485,-0.8486,-0.8484,-0.8494,-0.8487,-0.8491,-0.8489,-0.8481,-0.8482,-0.8496,-0.8496,-0.8486,-0.8512,-0.8499,-0.8501,-0.8511,-0.8515,-0.8518,-0.8518,-0.8471,0,0,0,0,0,-0.8483,-0.8491,-0.8487,-0.8503,-0.8504,-0.8499,-0.8503,-0.8497,-0.8499,-0.85,-0.8498,-0.85,-0.8506,-0.8511,-0.8516,-0.8534,-0.8533,-0.8542,-0.8545,-0.8548,-0.855,-0.8558,-0.8562,-0.8522,-0.8522,-0.8522,0,0,-0.8497,-0.8496,-0.8501,-0.8507,-0.8508,-0.8515,-0.85,-0.8509,-0.8514,-0.8501,-0.8513,-0.8512,-0.8513,-0.8528,-0.8535,-0.8529,-0.856,-0.855,-0.8552,-0.8553,-0.856,-0.8564,-0.8567,-0.8524,-0.8523,-0.8523,0,0,-0.8526,-0.8526,-0.8538,-0.8539,-0.8539,-0.8535,-0.8538,-0.8537,-0.8535,-0.8547,-0.8537,-0.8543,-0.8554,-0.8555,-0.8557,-0.8583,-0.8575,-0.8585,-0.8601,-0.8609,-0.8612,-0.8614,-0.8623,-0.8626,-0.8587,-0.8587,-0.8587,0,-0.8543,-0.8554,-0.8546,-0.8555,-0.8557,-0.8544,-0.8556,-0.8557,-0.856,-0.8562,-0.8554,-0.8566,-0.8566,-0.8581,-0.8587,-0.8589,-0.8592,-0.8585,-0.8612,-0.8614,-0.8617,-0.8625,-0.8628,-0.8588,-0.8588,-0.8588,-0.8588,0,-0.8574,-0.8582,-0.8592,-0.8594,-0.8597,-0.8608,-0.86,-0.8605,-0.8598,-0.8595,-0.8606,-0.8605,-0.861,-0.8613,-0.8607,-0.8626,-0.8622,-0.8613,-0.8601,-0.8622,-0.8629,-0.8632,-0.859,-0.8589,-0.8589,-0.8589,0,0,-0.8618,-0.8613,-0.8617,-0.8617,-0.8615,-0.8621,-0.863,-0.8634,-0.8637,-0.8639,-0.8646,-0.8654,-0.8646,-0.8648,-0.8642,-0.8649,-0.8668,-0.8639,-0.8639,-0.8644,-0.8687,-0.8694,-0.8698,-0.8663,-0.8663,-0.8664,-0.8687,0,-0.8646,-0.8662,-0.8653,-0.867,-0.8676,-0.8663,-0.867,-0.867,-0.8666,-0.8671,-0.8667,-0.8673,-0.8661,-0.8662,-0.8668,-0.8665,-0.8677,-0.8663,-0.8669,-0.8669,-0.8669,-0.8702,-0.8709,-0.8731,-0.869,-0.869,-0.8691,0,-0.8681,-0.8683,-0.8699,-0.8695,-0.8697,-0.8704,-0.8706,-0.871,-0.8709,-0.8706,-0.8707,-0.8699,-0.8707,-0.8693,-0.8704,-0.8695,-0.8696,-0.8695,-0.8695,-0.8696,-0.8682,-0.8703,-0.8738,-0.8741,-0.8695,-0.8695,-0.8695,0,-0.871,-0.8717,-0.8727,-0.8727,-0.8723,-0.8728,-0.8726,-0.8724,-0.8725,-0.8727,-0.8728,-0.873,-0.8731,-0.8733,-0.8725,-0.8717,-0.8737,-0.8723,-0.8734,-0.8734,-0.8739,-0.8739,-0.8775,-0.874,-0.874,-0.874,-0.874,0,-0.8742,-0.8753,-0.874,-0.8747,-0.8757,-0.8747,-0.8758,-0.8755,-0.8753,-0.8758,-0.8746,-0.8751,-0.8741,-0.8745,-0.8739,-0.8748,-0.8749,-0.8746,-0.8744,-0.8747,-0.8747,-0.8749,-0.8747,-0.8741,-0.8741,-0.8741,-0.8741,0,-0.8777,-0.8769,-0.8779,-0.8773,-0.8772,-0.878,-0.8774,-0.878,-0.8774,-0.8781,-0.8782,-0.8774,-0.8777,-0.8769,-0.8773,-0.8768,-0.8781,-0.8777,-0.8781,-0.878,-0.8791,-0.879,-0.8829,-0.8833,-0.8796,-0.8796,-0.8797,0,-0.8798,-0.8806,-0.88,-0.8802,-0.88,-0.8804,-0.8806,-0.8795,-0.8797,-0.8794,-0.88,-0.8802,-0.8804,-0.881,-0.8804,-0.8806,-0.8802,-0.8815,-0.8802,-0.8804,-0.8802,-0.8801,-0.8802,-0.8818,-0.8819,-0.8819,-0.8819,0,-0.8836,-0.8831,-0.8833,-0.8833,-0.8835,-0.8835,-0.8834,-0.8836,-0.8825,-0.8828,-0.8831,-0.8832,-0.8833,-0.8836,-0.8836,-0.8834,-0.8825,-0.8823,-0.8826,-0.8829,-0.8831,-0.8829,-0.8788,-0.8823,-0.8822,-0.8822,-0.8822,-0.8822,-0.8864,-0.887,-0.8866,-0.8868,-0.8866,-0.8865,-0.8869,-0.8863,-0.8865,-0.8865,-0.8859,-0.8863,-0.886,-0.8858,-0.8857,-0.886,-0.8854,-0.8858,-0.8858,-0.886,-0.8861,-0.883,-0.886,-0.886,-0.886,-0.8859,-0.8859,0,-0.8901,-0.8897,-0.8899,-0.8897,-0.8899,-0.8889,-0.8887,-0.8889,-0.8892,-0.8889,-0.889,-0.8893,-0.8895,-0.8888,-0.8889,-0.8892,-0.8888,-0.8893,-0.8892,-0.8892,-0.8867,-0.8864,-0.8896,-0.8896,-0.8896,-0.8896,-0.8896,-0.8896,-0.892,-0.8928,-0.8922,-0.8929,-0.8925,-0.8928,-0.8928,-0.8926,-0.8924,-0.8927,-0.8928,-0.8923,-0.8918,-0.8918,-0.8919,-0.8917,-0.8918,-0.8924,-0.892,-0.8897,-0.8894,-0.889,-0.8888,-0.8924,-0.8924,-0.8945,-0.8945,-0.8945]}]]